Location: ??????????
(42.1626°N, 44.1160°E)
Time: 14:21:53
(UTC+00:00)

SJ-6B - Pass Details

Date: 03 March 2021
Orbit: 509 x 581 km, 97.6° (Epoch: 21 April)

Event Time Altitude Azimuth Distance (km) Brightness Sun altitude
Exits shadow 16:10:20 25° 90° (E) 1,182 3.9 -14.6°
Maximum altitude 16:11:09 27° 69° (ENE) 1,125 3.9 -14.7°
Drops below altitude 10° 16:14:36 10° 12° (NNE) 1,880 5.5 -15.4°
Sets 16:16:57 0° 360° (N) 2,771 6.5 -15.8°
